FLOCK 2P-10

Last updated on Wed Feb 14 2018 16:19:50 GMT+0000 (Coordinated Universal Time)

1 41612U 16040P 18044.84875114 .00002126 00000-0 90835-4 0 9990 2 41612 97.4324 110.8051 0009304 322.8265 37.2327 15.23936507 91459
UTC large
Height (km)
Speed (km/s)
/
Latitude / Longitude
Inclination (degrees)
Orbital Period (minutes)
Azimuth
Elevation
Range (km)
Doppler Factor

Next 0 passes for location: London (51.5072 / 0.1276)

Sorry there are no passes over London.